Flag for Italy Weather past 2 weeks in Catania, Italy

Now
63 °F

Passing clouds.


Feels Like: 63 °F
Forecast: 65 / 80 °F
Wind: 6 mph from West

Location: Catania / Fontanarossa

Current Time: Sep 16, 2014 at 7:31:49 AM

Latest Report: Sep 16, 2014 at 6:50 AM


Visibility: N/A

Pressure: 29.92 "Hg

Humidity: 94%

Dew point: 61 °F

Location of CataniaLocation

Historic Weather in Catania — Graph

°F

Catania temperature yesterday

Maximum temperature yesterday: 81 °F (at 11:20 AM)
Minimum temperature yesterday: 61 °F (at 5:50 AM)
Average temperature yesterday: 73 °F

Past Weeks' High & Low Weather Summary

 TemperatureHumidityPressure
High91 °F (Sep 1, 1:50 PM)94% (Sep 14, 1:50 AM)30.04 "Hg (Sep 14, 1:50 AM)
Low61 °F (Sep 4, 6:20 AM)27% (Sep 1, 3:50 PM)29.59 "Hg (Sep 1, 6:50 PM)
Average74 °F64%29.88 "Hg
* Reported Sep 1 6:20 AM — Sep 16 6:20 AM, Catania, Weather by CustomWeather, © 2014

Note: Actual official high and low records may vary slightly from our data, if they occured in-between our weather recording intervals... More about our weather records

Advertising

Catania weather history for previous 24 hours

 ConditionsComfort  
Time TempWeatherWind HumidityBarometerVisibility
6:20 AM
Sep 16
63 °FPassing clouds.3 mph94%29.92 "HgN/A
5:50 AM64 °FPassing clouds.6 mph88%29.92 "HgN/A
5:20 AM64 °FPassing clouds.3 mph88%29.92 "HgN/A
4:50 AM66 °FPassing clouds.5 mph83%29.92 "HgN/A
4:20 AM66 °FPassing clouds.6 mph83%29.92 "HgN/A
3:50 AM66 °FPassing clouds.7 mph88%29.92 "HgN/A
2:50 AM68 °FPassing clouds.8 mph83%29.95 "HgN/A
2:20 AM66 °FPassing clouds.7 mph88%29.95 "HgN/A
1:50 AM68 °FPassing clouds.6 mph83%29.95 "HgN/A
1:20 AM70 °FClear.3 mph83%29.95 "Hg10 mi
12:50 AM70 °FClear.2 mph83%29.95 "Hg10 mi
12:20 AM72 °FPassing clouds.3 mph83%29.95 "HgN/A
11:50 PM
Sep 15
73 °FClear.5 mph78%29.95 "Hg10 mi
11:20 PM73 °FClear.5 mph83%29.98 "Hg10 mi
10:50 PM73 °FClear.5 mph83%29.98 "Hg10 mi
10:20 PM72 °FClear.5 mph83%29.98 "Hg10 mi
9:50 PM73 °FClear.6 mph78%29.98 "Hg10 mi
9:20 PM73 °FClear.5 mph78%29.98 "Hg10 mi
8:50 PM73 °FClear.5 mph78%29.95 "Hg10 mi
8:20 PM75 °FPassing clouds.6 mph74%29.95 "HgN/A
7:50 PM75 °FScattered clouds.7 mph74%29.95 "HgN/A
7:20 PM75 °FScattered clouds.7 mph74%29.95 "HgN/A
6:50 PM77 °FScattered clouds.9 mph69%29.95 "HgN/A
6:20 PM77 °FScattered clouds.10 mph65%29.95 "HgN/A
5:50 PM77 °FPassing clouds.12 mph65%29.95 "HgN/A
5:20 PM77 °FPassing clouds.12 mph65%29.95 "HgN/A
4:50 PM79 °FSunny.13 mph65%29.95 "Hg10 mi
4:20 PM79 °FSunny.13 mph61%29.95 "Hg10 mi
3:50 PM79 °FSunny.13 mph61%29.95 "Hg10 mi
3:20 PM79 °FSunny.13 mph61%29.95 "Hg10 mi
2:50 PM79 °FSunny.13 mph61%29.95 "Hg10 mi
2:20 PM79 °FPassing clouds.12 mph58%29.98 "HgN/A
1:50 PM79 °FPassing clouds.12 mph58%29.98 "HgN/A
1:20 PM79 °FPassing clouds.12 mph58%29.98 "HgN/A
12:50 PM81 °FPassing clouds.12 mph54%29.98 "HgN/A
12:20 PM81 °FPassing clouds.10 mph54%29.98 "HgN/A
11:50 AM79 °FPassing clouds.10 mph54%30.01 "HgN/A
11:20 AM81 °FPassing clouds.7 mph51%30.01 "HgN/A
10:50 AM79 °FPassing clouds.5 mph54%30.01 "HgN/A
10:20 AM77 °FPassing clouds.3 mph57%30.01 "HgN/A
9:50 AM75 °FPassing clouds.2 mph65%30.01 "HgN/A
9:20 AM73 °FPassing clouds.5 mph65%30.01 "HgN/A
8:50 AM70 °FSunny.5 mph73%30.01 "Hg10 mi
8:20 AM66 °FSunny.6 mph83%30.01 "Hg10 mi
7:50 AM64 °FPassing clouds.3 mph88%30.01 "HgN/A
7:20 AM63 °FPassing clouds.3 mph88%29.98 "HgN/A
Weather by CustomWeather, © 2014

See weather overviewHow to use our weather pages